RH
70 67 67 60 61 66 66 68 70 71 69 68 68 69 69 70 71 75 75 75 73 73 70 65 61 59 64 63 64 63 63 67 66 69 69 76 72 73 69 78 75 79 84
67 65 66 63 62 67 65 65 70 67 67 63 61 60 60 64 69 69 65 64 68 69 67 64 61 51 68 67 72 69 67 67 67 71 75 75 80 71 69 69 54 53 67
69 65 66 63 65 67 65 64 63 65 64 58 59 60 59 64 66 66 65 64 66 65 65 64 63 66 70 72 69 68 63 50 65 72 70 74 77 72 77 67 65 65 48
65 63 66 64 65 66 63 63 62 61 61 61 61 59 62 60 59 55 58 64 64 61 65 62 61 64 68 67 63 67 62 67 62 69 74 73 76 74 75 76 76 71 67
62 63 68 65 64 64 63 62 61 60 58 56 60 60 61 58 47 58 58 64 64 66 66 60 80 82 85 87 64 67 65 66 67 67 68 73 79 82 80 79 79 77 76
64 68 71 65 62 65 64 63 64 62 59 59 56 58 64 39 65 68 64 63 58 63 65 70 74 79 82 81 79 83 79 68 61 64 67 74 74 79 76 87 84 86 94
67 63 67 68 63 66 62 60 62 64 65 64 61 59 62 59 67 71 68 58 62 66 64 62 46 46 71 68 78 78 74 69 75 80 67 71 75 75 78 79 79 82 86
68 62 67 70 64 67 64 62 65 65 65 63 64 62 62 54 70 70 73 63 65 67 67 62 60 68 70 64 57 58 57 56 68 57 81 76 82 77 75 78 81 80 81
68 65 64 67 64 66 66 67 66 64 65 64 59 62 65 62 75 70 65 62 60 63 58 60 67 68 76 70 61 68 68 71 69 70 73 71 70 70 72 86 95 94 96
69 66 62 63 64 65 67 68 71 68 62 55 55 62 65 68 78 73 62 52 62 56 60 63 70 64 76 73 70 69 76 79 56 64 72 74 72 69 69 79 90 95 94
78 73 66 67 69 65 70 72 72 67 62 62 57 60 61 69 72 76 73 53 50 56 54 62 64 80 74 72 75 76 74 79 79 81 87 88 84 83 83 82 83 94 92
80 81 71 67 65 63 72 73 69 70 66 65 61 61 58 69 72 81 74 76 69 51 55 57 68 81 79 75 80 78 79 86 90 96 96 97 97 96 94 90 81 87 88
89 88 83 69 68 68 71 69 68 66 66 63 56 59 61 62 70 78 78 71 78 69 55 60 82 82 80 83 80 79 83 88 94 96 97 97 96 94 88 84 78 82 74
91 90 90 85 81 74 63 65 67 68 67 60 56 61 67 65 78 75 66 65 83 78 86 81 80 80 82 84 88 86 83 89 92 94 94 94 94 93 93 94 92 90 92
90 87 86 85 82 80 72 72 68 64 63 60 56 55 68 70 69 74 65 60 60 64 83 84 88 88 87 90 88 89 91 89 89 92 94 94 94 94 93 91 93 93 93
89 94 95 95 94 88 84 87 97 89 82 77 70 60 54 64 79 78 74 70 70 74 77 90 92 91 89 88 89 90 89 89 88 91 92 93 94 94 92 90 93 93 93
82 89 91 95 96 95 95 91 92 92 94 88 82 78 75 72 81 80 77 75 74 74 67 82 88 88 88 86 85 88 90 87 82 90 91 91 93 93 92 92 92 96 93
82 95 90 90 93 94 91 92 88 90 92 89 96 84 83 82 82 82 79 78 89 72 60 68 76 87 84 82 84 85 89 90 87 86 90 91 92 92 94 92 92 88 91
84 88 84 95 96 97 96 97 97 95 91 94 93 92 90 89 85 84 82 69 76 74 64 64 67 76 83 82 83 86 86 88 87 87 88 89 94 90 89 90 90 89 90
87 96 95 89 96 95 96 96 97 97 96 95 94 93 96 93 93 92 84 78 79 76 71 68 68 72 78 85 87 89 88 89 88 92 90 91 95 92 89 90 89 89 87
92 92 98 94 96 96 97 97 96 97 98 96 94 92 91 85 86 87 86 84 82 80 80 75 76 79 82 86 86 89 88 86 86 87 88 90 99 96 90 89 90 88 87
93 92 93 95 95 97 98 97 98 96 97 96 96 98 95 90 90 91 88 86 84 81 80 82 83 81 83 82 85 88 90 92 91 87 87 88 90 98 93 91 89 90 88
92 95 93 93 94 97 98 97 98 98 97 96 97 97 97 92 92 92 92 92 90 87 85 85 87 87 84 80 82 83 88 90 90 87 90 90 89 91 95 93 90 89 87
91 93 96 97 96 96 97 98 98 98 98 99 99 99 99 96 100 100 100 100 94 95 92 92 88 88 88 92 90 85 86 89 90 90 86 92 90 89 90 94 92 88 86
90 91 95 96 98 98 98 98 98 98 98 98 99 99 99 99 100 100 100 100 100 100 100 100 99 94 89 91 91 92 91 96 93 94 94 91 93 90 89 89 92 90 86
86 87 90 95 96 97 98 98 98 98 98 99 99 99 99 99 99 100 100 100 100 100 100 100 100 100 99 100 97 98 100 98 97 95 94 95 94 94 93 90 88 90 89
Wind_Speed
16 14 13 10 9 9 8 7 8 7 9 8 8 7 7 7 7 7 7 7 7 5 5 6 7 5 3 3 3 3 4 4 6 3 4 5 3 4 3 6 9 7 5
15 14 13 10 10 10 8 8 9 8 8 8 9 8 7 6 7 8 8 7 7 7 6 7 6 4 5 4 4 5 4 4 6 7 4 3 5 3 1 1 5 9 7
14 14 13 11 12 11 10 10 11 9 8 9 9 8 8 7 7 7 8 7 7 7 7 7 6 7 4 4 4 4 3 3 4 5 3 3 3 1 3 3 3 4 7
15 15 15 14 14 12 11 11 11 10 9 8 8 7 7 7 8 7 8 7 7 7 7 7 6 7 7 5 4 5 4 4 3 4 4 3 3 2 2 2 3 3 3
19 17 15 13 13 12 12 12 10 10 8 9 8 7 7 7 7 8 8 8 7 7 7 7 7 10 15 9 4 4 4 4 3 4 3 3 4 2 2 2 1 1 2
17 17 16 14 13 13 12 12 10 10 9 9 9 8 8 8 12 12 10 7 8 7 6 8 6 10 10 11 11 14 7 2 3 2 3 3 4 4 2 3 2 0 2
16 17 18 15 14 13 13 13 12 11 10 9 9 9 9 5 16 14 13 7 8 7 7 8 6 6 8 6 7 9 8 7 6 1 2 2 3 3 5 3 2 1 2
16 16 18 17 15 14 14 14 13 11 11 10 10 10 9 7 15 15 11 8 7 8 8 9 6 9 7 8 7 6 6 5 4 5 6 5 5 4 3 5 4 1 2
18 18 18 18 16 16 15 14 12 12 10 10 10 11 10 8 14 16 11 7 7 8 8 8 10 9 13 13 7 8 7 5 6 9 9 8 6 6 4 3 2 2 2
18 17 15 16 16 16 14 13 11 10 11 10 11 10 10 11 14 16 12 5 7 7 7 7 11 11 17 12 6 7 7 7 7 5 3 3 3 4 4 1 4 3 2
10 11 13 15 15 14 12 10 11 11 11 11 11 10 9 12 12 16 17 6 7 7 7 6 5 14 17 15 9 1 7 8 6 7 5 5 5 6 4 5 4 4 3
10 10 11 15 12 12 13 12 12 12 11 11 10 9 9 10 15 15 18 15 4 8 7 6 8 17 13 13 8 6 6 6 5 3 2 2 2 3 5 5 5 3 4
6 6 7 12 12 12 14 12 10 11 9 10 10 9 9 8 8 19 18 19 10 1 3 9 17 19 17 10 9 10 6 4 5 4 4 4 4 5 5 4 4 5 6
6 6 4 7 8 9 10 9 10 10 10 10 10 10 8 8 9 8 10 12 5 4 1 5 11 12 9 7 6 5 4 5 5 5 5 4 4 4 4 5 5 4 3
4 4 7 6 5 5 7 8 9 10 11 10 10 10 10 10 11 14 15 11 10 8 6 6 5 5 6 6 6 6 5 5 6 5 5 5 5 5 4 4 4 4 5
7 4 3 4 4 3 3 3 8 1 11 11 12 10 9 11 16 21 20 17 15 14 6 5 5 7 8 8 8 8 8 8 7 5 5 5 5 5 5 5 4 5 6
10 5 6 5 5 7 6 6 5 2 4 7 10 11 13 10 18 23 20 18 18 13 9 6 8 9 8 8 8 9 8 8 8 6 6 6 5 5 5 5 5 4 6
13 10 1 5 5 6 6 4 4 7 6 5 2 4 7 14 18 21 20 15 4 9 10 10 9 8 9 9 9 8 7 7 9 9 7 7 7 6 5 5 6 7 6
11 10 8 2 3 4 3 2 4 4 6 4 3 1 1 3 11 16 21 11 10 11 12 11 10 8 9 9 8 7 8 8 9 8 9 8 7 8 9 7 6 9 7
11 12 10 5 5 1 2 2 4 4 5 5 6 6 5 4 4 5 10 10 10 10 11 12 10 9 8 8 8 7 8 8 9 8 9 8 8 9 9 9 8 8 9
9 10 12 9 6 4 5 5 4 3 4 6 7 8 12 10 10 9 10 11 10 10 10 11 10 8 7 7 8 8 10 9 9 9 9 9 8 9 10 9 8 8 8
9 9 9 8 7 8 6 3 3 4 5 4 4 5 13 9 7 7 8 9 9 9 8 9 9 10 8 9 8 8 9 10 9 9 9 9 8 9 9 9 9 9 9
9 10 9 8 7 8 7 7 6 5 3 4 3 2 4 8 6 6 6 6 7 8 8 7 8 8 9 10 8 9 9 10 11 10 10 9 9 9 11 11 11 10 10
7 8 8 7 7 7 7 7 7 8 7 6 6 4 2 5 4 4 3 4 6 7 7 7 6 8 7 6 7 7 7 6 7 10 13 9 10 10 10 11 11 13 11
7 7 7 8 8 7 8 7 7 7 7 7 7 6 6 6 5 3 2 1 1 1 3 2 2 4 7 8 7 8 7 7 7 6 6 10 10 11 10 10 11 11 13
6 6 6 5 5 7 6 6 6 6 6 6 6 7 6 6 6 5 5 4 3 3 3 3 4 7 6 3 4 5 5 5 6 9 6 7 10 10 10 12 14 10 12
Wind_Direction
164 166 157 166 160 150 142 141 132 130 141 150 141 145 145 149 143 124 129 131 134 144 130 124 123 129 120 84 70 67 51 66 114 92 111 131 93 72 156 136 147 132 148
164 162 159 162 150 146 154 146 133 144 157 154 145 153 152 151 143 135 145 144 135 137 135 122 136 104 98 98 79 80 77 25 124 136 142 137 111 142 209 177 181 154 154
167 161 160 162 155 158 159 150 146 154 164 154 152 157 156 158 144 144 133 139 146 141 140 138 133 133 137 124 135 126 108 74 91 125 122 118 126 114 201 180 185 158 162
171 167 166 168 163 165 159 151 157 161 161 156 155 159 151 156 148 151 140 144 137 146 140 136 149 140 134 144 117 120 122 109 97 112 138 149 119 195 257 147 195 199 125
166 166 167 171 166 162 158 156 161 161 160 158 154 153 150 161 165 150 147 140 146 133 125 112 79 88 82 64 140 152 154 145 167 153 143 139 160 169 164 123 6 40 120
168 170 163 168 169 168 161 159 159 160 164 161 163 157 164 177 157 147 141 146 143 144 150 106 126 110 89 83 81 74 68 100 164 164 141 171 145 140 164 125 169 286 217
174 169 161 173 175 167 162 162 165 170 165 166 166 161 176 171 151 149 149 157 149 156 152 137 164 141 135 124 101 101 77 72 70 35 117 100 140 150 131 133 163 163 242
179 167 164 173 174 166 170 169 171 170 172 170 169 169 175 156 157 151 161 156 156 167 151 155 163 152 159 152 157 144 140 136 47 31 38 60 57 69 133 151 194 229 70
182 179 173 173 172 167 173 175 174 170 171 174 176 175 175 154 167 159 160 170 163 171 160 169 151 163 161 168 173 160 151 133 99 90 90 90 89 75 70 101 54 72 296
183 182 171 167 174 175 174 175 173 174 174 175 182 183 179 158 176 170 172 183 170 170 171 171 168 164 166 171 191 169 168 170 153 147 138 125 179 179 186 182 187 160 221
179 183 167 167 179 168 171 172 176 175 176 181 183 183 187 160 180 180 186 204 175 175 181 171 155 152 171 177 196 169 185 161 149 169 187 186 183 190 191 208 203 161 196
172 186 181 169 175 164 169 179 178 181 179 183 183 183 191 160 167 192 192 214 166 181 184 181 154 161 171 177 163 160 128 125 138 135 174 209 195 178 186 184 195 227 191
167 173 180 164 166 171 176 176 175 183 186 185 189 186 185 167 172 182 192 214 209 299 199 173 152 166 165 167 163 161 158 160 159 167 196 202 191 203 185 171 195 223 222
125 108 96 149 162 166 172 175 180 189 192 189 193 187 181 186 166 176 196 210 196 183 228 116 155 159 159 152 145 177 189 196 190 192 198 202 188 192 201 177 189 215 230
150 149 149 140 140 141 165 181 194 199 197 194 196 189 182 195 188 171 177 190 198 190 132 115 135 144 163 170 178 188 195 209 205 209 197 197 190 182 196 200 179 193 220
148 163 168 132 137 162 164 136 50 342 200 207 201 195 199 192 160 166 179 181 177 169 169 157 175 178 184 184 190 193 197 201 211 202 205 195 193 188 193 212 185 189 206
352 196 167 171 174 184 193 197 193 14 45 235 208 202 188 179 164 171 177 177 175 162 202 190 185 191 191 191 195 198 200 202 199 207 198 203 190 195 190 204 205 174 212
358 6 20 171 159 175 196 186 184 193 202 210 252 240 218 174 171 174 174 156 141 204 204 206 207 193 198 200 199 200 194 188 200 203 206 202 197 198 198 204 201 208 212
0 6 360 332 138 159 159 176 222 193 186 180 167 65 108 148 179 169 161 180 190 199 209 214 213 209 201 199 201 196 193 198 198 198 205 207 200 201 218 214 206 207 208
356 360 360 5 30 318 210 196 226 198 191 193 196 189 134 128 171 187 193 196 195 197 204 214 215 215 211 199 198 193 197 201 202 199 205 205 201 205 213 211 214 215 217
357 356 1 6 9 26 35 16 313 240 205 201 202 190 180 193 195 196 199 208 206 203 202 207 214 213 207 203 199 197 201 205 205 204 209 211 197 212 212 210 212 219 222
3 1 3 7 359 358 354 3 10 5 328 255 225 193 176 191 202 211 210 213 219 218 213 205 206 207 211 209 207 204 201 206 205 202 208 210 204 211 218 220 218 213 218
4 4 2 3 4 359 1 3 359 351 346 337 359 44 173 194 194 193 208 205 211 223 223 222 214 212 207 212 213 209 205 206 203 201 204 207 205 204 208 222 222 223 220
2 6 4 3 3 9 14 12 10 8 5 6 7 340 229 209 201 211 216 202 200 203 217 219 232 223 209 205 208 219 217 205 193 203 204 206 213 210 209 215 220 223 229
354 4 6 6 4 7 5 12 16 16 17 8 7 358 4 7 7 354 347 52 276 292 237 196 196 265 245 227 220 219 224 205 202 186 187 209 214 217 218 220 222 224 228
358 355 357 357 8 13 11 9 7 12 10 14 17 15 9 15 15 5 8 19 12 5 355 356 349 338 326 320 347 311 281 246 218 215 200 198 214 219 220 229 232 228 226